Hourly Data Report for October 03, 2015

All times are specified in Local Standard Time (LST). Add 1 hour to adjust for Daylight Saving Time where and when it is observed.

KITCHENER/WATERLOO
ONTARIO

43°27'39.000" N
80°22'43.000" W
321.60 m
6144239
71368
YKF

Download Data

Hourly Data (October 2015)
Hourly Data Report for October 3, 2015
Temp Definition
°C
Dew Point Temp Definition
°C
Rel Hum Definition
%
Wind Dir Definition
10's deg

Wind Spd Definition
km/h
Visibility Definition
km
Stn Press Definition
kPa
Hmdx Definition


Wind Chill Definition


Weather Definition


TIME
00:00 Legend Double Dagger 6.3 -1.4 58 5 24 16.1 99.08     LegendNANA
01:00 Legend Double Dagger 6.1 -1.3 59 5 24 16.1 99.06     LegendNANA
02:00 Legend Double Dagger 6.3 -1.4 58 5 28 16.1 99.03     LegendNANA
03:00 Legend Double Dagger 5.7 -2.1 57 6 32 16.1 98.98     LegendNANA
04:00 Legend Double Dagger 5.3 -2.2 59 6 28 16.1 98.99     LegendNANA
05:00 Legend Double Dagger 5.3 -2.1 59 6 30 16.1 98.99     LegendNANA
06:00 Legend Double Dagger 5.3 -1.8 60 6 28 16.1 99.00     LegendNANA
07:00 Legend Double Dagger 5.3 -1.6 61 6 34 16.1 98.97     LegendNANA
08:00 Legend Double Dagger 5.9 -0.3 64 6 28 16.1 99.05     LegendNANA
09:00 Legend Double Dagger 6.9 1.2 67 7 39 16.1 98.98     LegendNANA
10:00 Legend Double Dagger 7.7 2.1 67 7 30 16.1 98.98     LegendNANA
11:00 Legend Double Dagger 9.0 2.7 65 7 46 16.1 98.92     LegendNANA
12:00 Legend Double Dagger 9.6 2.7 62 7 50 16.1 98.88     LegendNANA
13:00 Legend Double Dagger 9.5 2.8 63 7 35 16.1 98.85     LegendNANA
14:00 Legend Double Dagger 9.0 3.6 69 8 46 16.1 98.82     Rain
15:00 Legend Double Dagger 7.1 5.3 88 7 32 14.5 98.84     Rain
16:00 Legend Double Dagger 7.2 5.8 91 7 32 16.1 98.83     Rain
17:00 Legend Double Dagger 7.3 5.8 90 7 28 16.1 98.83     Rain
18:00 Legend Double Dagger 6.9 4.7 86 7 28 16.1 98.86     LegendNANA
19:00 Legend Double Dagger 7.0 4.4 83 7 18 16.1 98.85     LegendNANA
20:00 Legend Double Dagger 7.6 5.1 84 8 21 16.1 98.83     LegendNANA
21:00 Legend Double Dagger 8.6 6.0 84 10 35 14.5 98.81     Rain
22:00 Legend Double Dagger 8.5 6.3 86 9 32 16.1 98.77     LegendNANA
23:00 Legend Double Dagger 8.7 6.0 83 9 35 16.1 98.76     LegendNANA

Notes on Data Quality.

Legend

  • E = Estimated
  • M = Missing
  • NA = Not Available
  • ‡ = Partner data that is not subject to review by the National Climate Archives
Date modified: